FW2068 Weather Reports


Display with metric or nautical units.
time (UTC)temp
F
wind
direction
speed
MPH
gust
MPH
rain 1hr
in
rain 24hr
in
rain mn
in
humidity
%
barometer
mb
20260903065840 76 138 3.0 5.0 0.00 0.00 0.00 93 1012.8
20260903065339 76 142 2.0 4.0 0.00 0.00 0.00 93 1012.8
20260903064839 76 142 3.0 5.0 0.00 0.00 0.00 92 1012.5
20260903064334 77 113 3.0 5.0 0.00 0.00 0.00 91 1012.6
20260903063830 77 115 2.0 6.0 0.00 0.00 0.00 90 1012.6
20260903063324 77 85 4.0 9.0 0.00 0.00 0.00 89 1012.7
20260903062815 77 115 3.0 7.0 0.00 0.00 0.00 88 1012.8
20260903062314 78 105 2.0 6.0 0.00 0.00 0.00 87 1012.6
20260903061811 78 134 3.0 5.0 0.00 0.00 0.00 86 1012.3
20260903061310 78 107 4.0 7.0 0.00 0.00 0.00 85 1012.2
20260903060806 79 117 2.0 6.0 0.00 0.00 0.00 84 1012.3
20260903060305 79 92 4.0 6.0 0.00 0.00 0.00 83 1012.4
20260903055803 79 128 2.0 4.0 0.00 0.00 0.00 82 1012.6
20260903055306 79 130 3.0 8.0 0.00 0.00 0.00 82 1012.5
20260903054757 79 112 2.0 4.0 0.00 0.00 0.00 82 1012.8
20260903054252 79 118 0.0 4.0 0.00 0.00 0.00 82 1012.7
20260903053748 79 62 4.0 4.0 0.00 0.00 0.00 82 1012.8
20260903053247 79 63 2.0 4.0 0.00 0.00 0.00 82 1012.9
20260903052738 79 116 2.0 4.0 0.00 0.00 0.00 82 1012.8
20260903052234 79 123 2.0 5.0 0.00 0.00 0.00 82 1013.0
20260903051729 79 108 1.0 3.0 0.00 0.00 0.00 82 1012.9
20260903051224 79 100 6.0 8.0 0.00 0.00 0.00 81 1013.2
20260903050720 79 160 4.0 6.0 0.00 0.00 0.00 81 1013.2
20260903050219 79 101 7.0 9.0 0.00 0.00 0.00 80 1013.2
20260903045714 79 107 5.0 10.0 0.00 0.00 0.00 80 1013.2
20260903045210 80 123 5.0 11.0 0.00 0.00 0.00 79 1013.2
20260903044706 80 100 5.0 9.0 0.00 0.00 0.00 78 1013.4
20260903044201 81 154 2.0 5.0 0.00 0.00 0.00 76 1013.3
20260903043658 81 123 4.0 9.0 0.00 0.00 0.00 76 1013.0
20260903043157 81 115 3.0 5.0 0.00 0.00 0.00 76 1013.2
20260903042656 81 116 1.0 5.0 0.00 0.00 0.00 75 1013.2
20260903042151 81 114 4.0 5.0 0.00 0.00 0.00 75 1013.1
20260903041648 81 52 2.0 5.0 0.00 0.00 0.00 74 1013.3
20260903041143 81 126 1.0 9.0 0.00 0.00 0.00 73 1013.4
20260903040642 81 92 2.0 5.0 0.00 0.00 0.00 73 1013.3
20260903040138 82 102 3.0 4.0 0.00 0.00 0.00 72 1013.4
20260903035634 82 140 2.0 9.0 0.00 0.00 0.00 72 1013.3
20260903035129 82 93 2.0 5.0 0.00 0.00 0.00 71 1013.5
20260903034624 82 125 3.0 6.0 0.00 0.00 0.00 71 1013.3
20260903034119 82 116 2.0 7.0 0.00 0.00 0.00 71 1013.3
20260903033614 82 94 4.0 6.0 0.00 0.00 0.00 70 1013.3
20260903033110 82 121 1.0 6.0 0.00 0.00 0.00 70 1013.3
20260903032610 83 134 1.0 4.0 0.00 0.00 0.00 70 1013.2
20260903032106 83 154 0.0 4.0 0.00 0.00 0.00 70 1013.3
20260903031606 83 101 4.0 7.0 0.00 0.00 0.00 69 1013.3
20260903031101 83 131 2.0 4.0 0.00 0.00 0.00 69 1013.4
20260903030556 83 97 2.0 3.0 0.00 0.00 0.00 68 1013.2
20260903030052 84 109 2.0 3.0 0.00 0.00 0.00 68 1013.1
20260903025547 84 150 2.0 5.0 0.00 0.00 0.00 67 1013.3
20260903025043 84 97 2.0 3.0 0.00 0.00 0.00 67 1013.1
20260903024542 84 108 4.0 6.0 0.00 0.00 0.00 67 1013.2
20260903024037 84 91 6.0 8.0 0.00 0.00 0.00 66 1013.1
20260903023533 84 105 4.0 6.0 0.00 0.00 0.00 66 1013.2
20260903023029 85 111 5.0 10.0 0.00 0.00 0.00 65 1013.1
20260903022528 85 146 4.0 8.0 0.00 0.00 0.00 65 1013.0
20260903022026 85 122 6.0 10.0 0.00 0.00 0.00 64 1012.8
20260903021521 85 134 8.0 16.0 0.00 0.00 0.00 63 1012.9
20260903021016 86 111 2.0 9.0 0.00 0.00 0.00 63 1013.0
20260903020512 86 117 6.0 13.0 0.00 0.00 0.00 62 1012.9
20260903020012 86 133 4.0 6.0 0.00 0.00 0.00 62 1012.8
20260903015507 86 111 5.0 9.0 0.00 0.00 0.00 63 1012.7
20260903015003 86 124 8.0 13.0 0.00 0.00 0.00 62 1012.7
20260903014501 87 113 4.0 9.0 0.00 0.00 0.00 62 1012.6
20260903013957 87 116 5.0 13.0 0.00 0.00 0.00 60 1012.5
20260903013456 87 108 5.0 8.0 0.00 0.00 0.00 59 1012.4
20260903012955 88 117 6.0 13.0 0.00 0.00 0.00 59 1012.4
20260903012455 88 114 5.0 13.0 0.00 0.00 0.00 58 1012.2
20260903011954 89 119 4.0 13.0 0.00 0.00 0.00 58 1012.2
20260903011448 89 138 8.0 8.0 0.00 0.00 0.00 57 1012.0
20260903010944 89 126 6.0 11.0 0.00 0.00 0.00 57 1012.1
20260903010439 90 125 5.0 8.0 0.00 0.00 0.00 56 1011.8
20260903005937 90 129 7.0 9.0 0.00 0.00 0.00 55 1011.9
20260903005432 90 118 4.0 8.0 0.00 0.00 0.00 55 1011.9
20260903004929 91 118 5.0 13.0 0.00 0.00 0.00 54 1011.8
20260903004429 91 150 8.0 10.0 0.00 0.00 0.00 53 1011.7
20260903003925 92 121 8.0 16.0 0.00 0.00 0.00 52 1011.8
20260903003425 93 148 3.0 5.0 0.00 0.00 0.00 50 1011.7
20260903002920 93 135 3.0 6.0 0.00 0.00 0.00 49 1011.5
20260903002415 93 131 5.0 6.0 0.00 0.00 0.00 49 1011.4
20260903001914 93 103 5.0 8.0 0.00 0.00 0.00 48 1011.6
20260903001409 94 114 4.0 7.0 0.00 0.00 0.00 48 1011.4
20260903000909 94 122 3.0 10.0 0.00 0.00 0.00 48 1011.5
20260903000404 94 139 5.0 9.0 0.00 0.00 0.00 48 1011.5
20260902235903 94 145 9.0 11.0 0.00 0.00 0.00 48 1011.4
20260902235358 95 111 4.0 10.0 0.00 0.00 0.00 46 1011.3
20260902234858 96 99 1.0 7.0 0.00 0.00 0.00 45 1011.3
20260902234357 97 125 3.0 10.0 0.00 0.00 0.00 44 1011.2
20260902233855 97 95 2.0 7.0 0.00 0.00 0.00 44 1011.4
20260902233351 96 133 6.0 11.0 0.00 0.00 0.00 45 1011.3
20260902232849 97 109 7.0 12.0 0.00 0.00 0.00 44 1011.3
20260902232344 96 149 3.0 11.0 0.00 0.00 0.00 44 1011.3
20260902231844 96 98 8.0 10.0 0.00 0.00 0.00 44 1011.1
20260902231339 96 37 2.0 7.0 0.00 0.00 0.00 44 1011.1
20260902230834 97 106 9.0 15.0 0.00 0.00 0.00 44 1011.3
20260902230334 98 138 3.0 13.0 0.00 0.00 0.00 44 1011.1
20260902225834 98 88 9.0 12.0 0.00 0.00 0.00 42 1011.1
20260902225329 98 111 8.0 12.0 0.00 0.00 0.00 44 1011.1
20260902224827 99 137 4.0 9.0 0.00 0.00 0.00 43 1011.0
20260902224322 99 149 2.0 7.0 0.00 0.00 0.00 44 1011.0
20260902223820 98 144 4.0 12.0 0.00 0.00 0.00 43 1011.2
20260902223320 99 122 4.0 19.0 0.00 0.00 0.00 44 1011.0
20260902222819 100 123 2.0 6.0 0.00 0.00 0.00 42 1011.2
20260902222318 99 98 7.0 11.0 0.00 0.00 0.00 41 1011.1
20260902221812 99 96 3.0 7.0 0.00 0.00 0.00 41 1011.0
20260902221311 99 107 3.0 7.0 0.00 0.00 0.00 42 1011.1
20260902220808 99 116 8.0 11.0 0.00 0.00 0.00 43 1011.0
20260902220307 98 92 3.0 8.0 0.00 0.00 0.00 44 1011.2
20260902215802 99 112 6.0 9.0 0.00 0.00 0.00 44 1011.0
20260902215257 100 140 4.0 12.0 0.00 0.00 0.00 43 1011.1
20260902214754 100 62 3.0 7.0 0.00 0.00 0.00 43 1011.0
20260902214252 99 118 2.0 9.0 0.00 0.00 0.00 44 1011.1
20260902213748 101 112 2.0 5.0 0.00 0.00 0.00 42 1011.2
20260902213248 99 122 5.0 8.0 0.00 0.00 0.00 44 1011.3
20260902212747 100 138 5.0 9.0 0.00 0.00 0.00 43 1011.4
20260902212244 100 116 6.0 12.0 0.00 0.00 0.00 40 1011.5
20260902211740 100 105 3.0 8.0 0.00 0.00 0.00 42 1011.5
20260902211236 100 110 5.0 9.0 0.00 0.00 0.00 42 1011.5
20260902210735 100 125 2.0 11.0 0.00 0.00 0.00 41 1011.5
20260902210230 100 132 3.0 10.0 0.00 0.00 0.00 41 1011.6
20260902205728 100 309 2.0 6.0 0.00 0.00 0.00 42 1011.7
20260902205224 100 129 4.0 9.0 0.00 0.00 0.00 42 1011.7
20260902204719 98 125 2.0 11.0 0.00 0.00 0.00 44 1011.7
20260902204214 100 132 7.0 9.0 0.00 0.00 0.00 43 1011.8
20260902203710 100 109 6.0 8.0 0.00 0.00 0.00 43 1011.8
20260902203209 99 101 5.0 6.0 0.00 0.00 0.00 44 1011.9
20260902202704 100 117 5.0 5.0 0.00 0.00 0.00 44 1012.1
20260902202201 100 130 5.0 6.0 0.00 0.00 0.00 44 1012.1
20260902201657 100 140 1.0 4.0 0.00 0.00 0.00 46 1012.3
20260902201156 99 124 5.0 9.0 0.00 0.00 0.00 45 1012.1
20260902200651 99 99 3.0 7.0 0.00 0.00 0.00 44 1012.4
20260902200147 99 54 2.0 3.0 0.00 0.00 0.00 43 1012.3
20260902195643 98 133 6.0 7.0 0.00 0.00 0.00 45 1012.3
20260902195142 98 97 2.0 7.0 0.00 0.00 0.00 44 1012.6
20260902194641 98 140 4.0 13.0 0.00 0.00 0.00 45 1012.8
20260902194136 98 134 9.0 13.0 0.00 0.00 0.00 45 1012.7
20260902193633 97 107 4.0 12.0 0.00 0.00 0.00 45 1013.0
20260902193132 98 151 3.0 9.0 0.00 0.00 0.00 46 1012.9
20260902192631 98 36 0.0 3.0 0.00 0.00 0.00 46 1012.9
20260902192130 98 51 2.0 4.0 0.00 0.00 0.00 47 1013.1
20260902191626 98 129 4.0 7.0 0.00 0.00 0.00 45 1013.1
20260902191125 98 50 1.0 5.0 0.00 0.00 0.00 46 1013.2
20260902190621 99 95 3.0 10.0 0.00 0.00 0.00 45 1013.2
20260902190122 98 101 3.0 8.0 0.00 0.00 0.00 46 1013.3
20260902185617 97 96 4.0 4.0 0.00 0.00 0.00 46 1013.3
20260902185113 96 93 1.0 6.0 0.00 0.00 0.00 48 1013.4
20260902184608 96 139 3.0 5.0 0.00 0.00 0.00 47 1013.7
20260902184103 97 164 2.0 5.0 0.00 0.00 0.00 48 1013.5
20260902183600 96 185 1.0 4.0 0.00 0.00 0.00 49 1013.6
20260902183056 97 292 4.0 5.0 0.00 0.00 0.00 48 1013.7
20260902182552 97 287 2.0 2.0 0.00 0.00 0.00 50 1013.9
20260902182048 96 341 4.0 9.0 0.00 0.00 0.00 48 1014.1
20260902181544 95 326 4.0 6.0 0.00 0.00 0.00 49 1014.0
20260902181043 95 283 4.0 4.0 0.00 0.00 0.00 49 1014.2
20260902180538 95 255 0.0 4.0 0.00 0.00 0.00 50 1014.4
20260902180034 95 194 0.0 3.0 0.00 0.00 0.00 50 1014.4
20260902175533 96 106 4.0 7.0 0.00 0.00 0.00 47 1014.6
20260902175030 96 210 2.0 5.0 0.00 0.00 0.00 50 1014.7
20260902174526 96 321 0.0 2.0 0.00 0.00 0.00 48 1014.7
20260902174021 97 91 5.0 6.0 0.00 0.00 0.00 46 1014.9
20260902173521 96 260 1.0 2.0 0.00 0.00 0.00 50 1014.9
20260902173021 96 132 3.0 5.0 0.00 0.00 0.00 48 1015.0
20260902172521 96 114 0.0 4.0 0.00 0.00 0.00 49 1015.2
20260902172016 95 110 8.0 9.0 0.00 0.00 0.00 49 1015.3
20260902171511 95 269 2.0 4.0 0.00 0.00 0.00 51 1015.4
20260902171008 95 69 2.0 5.0 0.00 0.00 0.00 50 1015.4
20260902170502 95 127 1.0 4.0 0.00 0.00 0.00 51 1015.5
20260902165958 95 139 4.0 6.0 0.00 0.00 0.00 52 1015.5
20260902165457 94 238 0.0 5.0 0.00 0.00 0.00 54 1015.6
20260902164952 94 299 3.0 4.0 0.00 0.00 0.00 52 1015.6
20260902164447 93 111 3.0 6.0 0.00 0.00 0.00 56 1015.6
20260902163946 94 163 2.0 2.0 0.00 0.00 0.00 54 1015.8
20260902163441 93 279 1.0 3.0 0.00 0.00 0.00 55 1015.8
20260902162939 91 185 2.0 4.0 0.00 0.00 0.00 57 1016.1
20260902162435 91 148 4.0 10.0 0.00 0.00 0.00 57 1015.9
20260902161934 93 115 3.0 5.0 0.00 0.00 0.00 54 1016.1
20260902161430 92 130 2.0 3.0 0.00 0.00 0.00 55 1015.9
20260902160926 91 306 1.0 4.0 0.00 0.00 0.00 56 1016.1
20260902160421 93 92 4.0 4.0 0.00 0.00 0.00 54 1016.1
20260902155919 91 333 0.0 2.0 0.00 0.00 0.00 58 1016.1
20260902155414 91 134 2.0 4.0 0.00 0.00 0.00 57 1016.0
20260902154908 92 108 1.0 3.0 0.00 0.00 0.00 58 1016.0
20260902154404 90 17 2.0 5.0 0.00 0.00 0.00 61 1016.0
20260902153903 89 320 3.0 4.0 0.00 0.00 0.00 64 1016.1
20260902153402 91 263 1.0 2.0 0.00 0.00 0.00 60 1016.2
20260902152858 89 145 2.0 5.0 0.00 0.00 0.00 62 1016.0
20260902152354 89 82 2.0 4.0 0.00 0.00 0.00 62 1016.2
20260902151849 88 168 0.0 3.0 0.00 0.00 0.00 63 1016.1
20260902151344 88 149 5.0 6.0 0.00 0.00 0.00 64 1016.1
20260902150838 89 157 5.0 6.0 0.00 0.00 0.00 63 1016.1
20260902150335 88 171 1.0 3.0 0.00 0.00 0.00 64 1016.0
20260902145834 88 123 2.0 5.0 0.00 0.00 0.00 64 1016.2
20260902145330 88 341 0.0 2.0 0.00 0.00 0.00 64 1016.0
20260902144825 87 164 4.0 4.0 0.00 0.00 0.00 66 1016.1
20260902144321 85 174 2.0 4.0 0.00 0.00 0.00 70 1015.9
20260902143816 85 166 2.0 6.0 0.00 0.00 0.00 71 1016.0
20260902143310 85 161 4.0 4.0 0.00 0.00 0.00 69 1016.0
20260902142807 85 137 1.0 4.0 0.00 0.00 0.00 69 1016.1
20260902142305 84 123 3.0 6.0 0.00 0.00 0.00 71 1015.9
20260902141802 84 122 2.0 5.0 0.00 0.00 0.00 71 1016.1
20260902141258 85 110 2.0 4.0 0.00 0.00 0.00 71 1016.0
20260902140752 84 113 2.0 6.0 0.00 0.00 0.00 71 1015.9
20260902140247 84 155 2.0 4.0 0.00 0.00 0.00 71 1015.8
20260902135746 83 157 6.0 9.0 0.00 0.00 0.00 73 1015.9
20260902135243 83 98 3.0 5.0 0.00 0.00 0.00 73 1015.8
20260902134742 83 141 3.0 7.0 0.00 0.00 0.00 73 1015.9
20260902134237 83 105 4.0 5.0 0.00 0.00 0.00 73 1015.8
20260902133733 83 122 2.0 6.0 0.00 0.00 0.00 72 1015.7
20260902133232 83 118 3.0 4.0 0.00 0.00 0.00 72 1015.8
20260902132727 83 115 1.0 3.0 0.00 0.00 0.00 72 1015.8
20260902132223 83 91 4.0 4.0 0.00 0.00 0.00 71 1016.0
20260902131718 83 121 1.0 4.0 0.00 0.00 0.00 71 1015.7
20260902131214 82 75 2.0 3.0 0.00 0.00 0.00 72 1015.9
20260902130709 82 144 2.0 3.0 0.00 0.00 0.00 72 1015.9
20260902130205 81 98 2.0 4.0 0.00 0.00 0.00 74 1015.9
20260902125705 80 121 1.0 3.0 0.00 0.00 0.00 76 1015.8
20260902125201 78 81 2.0 2.0 0.00 0.00 0.00 79 1015.9
20260902124658 78 75 0.0 2.0 0.00 0.00 0.00 80 1015.9
20260902124157 77 36 0.0 2.0 0.00 0.00 0.00 81 1015.7
20260902123653 77 333 0.0 1.0 0.00 0.00 0.00 81 1015.6
20260902123148 77 101 0.0 2.0 0.00 0.00 0.00 81 1015.8
20260902122642 77 185 0.0 2.0 0.00 0.00 0.00 81 1015.9
20260902122139 77 89 2.0 2.0 0.00 0.00 0.00 81 1015.7
20260902121638 77 83 1.0 2.0 0.00 0.00 0.00 82 1015.8
20260902121133 77 95 2.0 3.0 0.00 0.00 0.00 82 1015.7
20260902120629 77 89 0.0 2.0 0.00 0.00 0.00 82 1015.7
20260902120126 77 106 2.0 3.0 0.00 0.00 0.00 82 1015.6
20260902115620 77 119 3.0 3.0 0.00 0.00 0.00 83 1015.7
20260902115116 76 118 2.0 2.0 0.00 0.00 0.00 83 1015.6
20260902114612 76 132 1.0 2.0 0.00 0.00 0.00 83 1015.6
20260902114111 77 15 0.0 0.0 0.00 0.00 0.00 82 1015.4
20260902113607 77 144 0.0 1.0 0.00 0.00 0.00 81 1015.3
20260902113102 77 61 1.0 2.0 0.00 0.00 0.00 81 1015.6
20260902112557 77 47 0.0 2.0 0.00 0.00 0.00 81 1015.6
20260902112054 77 112 2.0 3.0 0.00 0.00 0.00 81 1015.3
20260902111550 77 140 0.0 2.0 0.00 0.00 0.00 81 1015.7
20260902111045 78 134 0.0 2.0 0.00 0.00 0.00 81 1015.6
20260902110541 78 127 0.0 2.0 0.00 0.00 0.00 80 1015.6
20260902110037 78 80 1.0 2.0 0.00 0.00 0.00 80 1015.6
20260902105532 78 116 1.0 2.0 0.00 0.00 0.00 80 1015.7
20260902105031 78 130 0.0 2.0 0.00 0.00 0.00 81 1015.6
20260902104527 78 89 0.0 1.0 0.00 0.00 0.00 81 1015.5
20260902104021 78 147 0.0 1.0 0.00 0.00 0.00 81 1015.5
20260902103517 78 129 0.0 0.0 0.00 0.00 0.00 81 1015.5
20260902103012 78 103 0.0 1.0 0.00 0.00 0.00 81 1015.2
20260902102508 78 117 0.0 0.0 0.00 0.00 0.00 80 1015.5
20260902102005 78 75 0.0 0.0 0.00 0.00 0.00 80 1015.4
20260902101500 78 50 0.0 0.0 0.00 0.00 0.00 80 1015.6
20260902100959 78 322 0.0 1.0 0.00 0.00 0.00 81 1015.3
20260902100454 77 15 0.0 0.0 0.00 0.00 0.00 81 1015.4
20260902095953 77 89 0.0 0.0 0.00 0.00 0.00 81 1015.3
20260902095448 78 89 0.0 0.0 0.00 0.00 0.00 81 1015.4
20260902094947 78 89 0.0 0.0 0.00 0.00 0.00 81 1015.3
20260902094444 78 89 0.0 0.0 0.00 0.00 0.00 80 1015.2
20260902093943 78 89 0.0 0.0 0.00 0.00 0.00 80 1015.0
20260902093438 78 37 0.0 0.0 0.00 0.00 0.00 79 1015.1
20260902092937 78 104 0.0 0.0 0.00 0.00 0.00 78 1015.2
20260902092433 79 104 0.0 0.0 0.00 0.00 0.00 78 1015.2
20260902091933 79 124 0.0 1.0 0.00 0.00 0.00 78 1015.4
20260902091428 79 104 0.0 1.0 0.00 0.00 0.00 78 1015.1
20260902090926 79 22 0.0 0.0 0.00 0.00 0.00 77 1015.3
20260902090425 79 113 0.0 0.0 0.00 0.00 0.00 76 1015.1
20260902085924 80 117 0.0 0.0 0.00 0.00 0.00 76 1015.1
20260902085420 80 108 0.0 1.0 0.00 0.00 0.00 76 1015.1
20260902084915 80 137 0.0 1.0 0.00 0.00 0.00 76 1015.1
20260902084412 80 101 1.0 1.0 0.00 0.00 0.00 75 1015.0
20260902083907 80 107 0.0 2.0 0.00 0.00 0.00 75 1015.0
20260902083406 80 132 0.0 2.0 0.00 0.00 0.00 75 1015.0
20260902082901 80 89 0.0 1.0 0.00 0.00 0.00 75 1015.1
20260902082357 80 333 0.0 0.0 0.00 0.00 0.00 75 1015.0
20260902081854 80 89 0.0 0.0 0.00 0.00 0.00 74 1015.1
20260902081349 81 89 0.0 0.0 0.00 0.00 0.00 73 1014.8
20260902080844 81 62 0.0 0.0 0.00 0.00 0.00 72 1014.9
20260902080341 81 140 1.0 2.0 0.00 0.00 0.00 72 1014.8
20260902075840 81 99 0.0 2.0 0.00 0.00 0.00 72 1015.0
20260902075336 81 129 0.0 1.0 0.00 0.00 0.00 73 1015.0
20260902074831 81 173 0.0 2.0 0.00 0.00 0.00 73 1015.1
20260902074327 81 142 0.0 1.0 0.00 0.00 0.00 72 1015.0
20260902073827 82 154 0.0 2.0 0.00 0.00 0.00 72 1015.0
20260902073324 82 133 0.0 1.0 0.00 0.00 0.00 72 1015.1
20260902072820 81 126 0.0 1.0 0.00 0.00 0.00 73 1015.2
20260902072315 81 117 0.0 0.0 0.00 0.00 0.00 73 1015.3
20260902071811 81 284 0.0 0.0 0.00 0.00 0.00 74 1015.0
20260902071306 81 284 0.0 0.0 0.00 0.00 0.00 74 1015.1
20260902070802 81 284 0.0 0.0 0.00 0.00 0.00 73 1015.2
20260902070302 81 283 0.0 1.0 0.00 0.00 0.00 73 1015.2